Flight Track Log - Related Links

Times and Time Zones

All times are in EDT time to prevent confusion due to time zone crossing. See the SKW4664 flight status page for this flight to view local times or setup timezone preferences in your user account.

Time Position Orientation Groundspeed Altitude Reporting Facility
EDT Latitude Longitude Course Direction KTS MPH feet Rate Location/Type
Sat 12:29:01 PM 43.6017 -96.7267 52° Northeast 146 168 2,700  Level Minneapolis Center
Sat 12:30:03 PM 43.6397 -96.6883 36° Northeast 175 201 4,200 1,610 Climbing Minneapolis Center
Sat 12:31:00 PM 43.7578 -96.4011 51° Northeast  Level FlightAware Approximate
Sat 12:31:04 PM 43.6764 -96.6156 55° Northeast 209 241 6,000  Level Minneapolis Center
Sat 12:32:00 PM 43.8224 -96.2896 53° Northeast  Level FlightAware Approximate
Sat 12:32:06 PM 43.7306 -96.5172 53° Northeast 249 287 8,900  Level Minneapolis Center
Sat 12:33:00 PM 43.8847 -96.1754 53° Northeast  Level FlightAware Approximate
Sat 12:33:08 PM 43.7775 -96.4300 53° Northeast 267 307 10,900  Level Minneapolis Center
Sat 12:34:00 PM 43.9474 -96.0615 52° Northeast  Level FlightAware Approximate
Sat 12:34:09 PM 43.8292 -96.3325 54° Northeast 291 335 12,500  Level Minneapolis Center
Sat 12:35:11 PM 43.8836 -96.2344 52° Northeast 317 365 15,300 2,177 Climbing Minneapolis Center
Sat 12:36:13 PM 43.9350 -96.1375 54° Northeast 316 364 17,000 1,561 Climbing Minneapolis Center
Sat 12:37:14 PM 43.9883 -96.0381 53° Northeast 324 373 18,500 1,659 Climbing Minneapolis Center
Sat 12:38:16 PM 44.0536 -95.9150 54° Northeast 333 383 20,400 1,220 Climbing Minneapolis Center
Sat 12:39:17 PM 44.1197 -95.8186 46° Northeast 353 406 21,000 293 Climbing Minneapolis Center
Sat 12:40:19 PM 44.2119 -95.7714 20° North 361 415 21,000  Level Minneapolis Center
Sat 12:41:21 PM 44.3036 -95.7289 18° North 354 407 21,000  Level Minneapolis Center
Sat 12:42:22 PM 44.3944 -95.6869 18° North 349 402 21,000 -537 Level Minneapolis Center
Sat 12:43:24 PM 44.5039 -95.6317 20° North 350 403 19,900 -968 Descending Minneapolis Center
Sat 12:44:26 PM 44.5739 -95.5453 41° Northeast 348 400 19,000 -439 Descending Minneapolis Center
Sat 12:45:27 PM 44.5864 -95.4222 82° East 324 373 19,000  Level Minneapolis Center
Sat 12:46:29 PM 44.5944 -95.2964 85° East 322 371 19,000  Level Minneapolis Center
Sat 12:47:31 PM 44.6025 -95.1603 85° East 342 394 19,000  Level Minneapolis Center
Sat 12:48:32 PM 44.6103 -95.0100 86° East 375 432 19,000  Level Minneapolis Center
Sat 12:49:34 PM 44.6178 -94.8625 86° East 381 438 19,000  Level Minneapolis Center
Sat 12:50:36 PM 44.6267 -94.7111 85° East 387 445 19,000 -683 Level Minneapolis Center
Sat 12:51:37 PM 44.6339 -94.5428 86° East 394 453 17,600 -2,098 Descending Minneapolis Center
Sat 12:52:39 PM 44.6431 -94.3967 85° East 376 433 14,700 -2,613 Descending Minneapolis Center
Sat 12:53:41 PM 44.6692 -94.2603 75° East 363 418 12,200 -1,805 Descending Minneapolis Center
Sat 12:54:42 PM 44.7053 -94.1083 71° East 340 391 11,000 -533 Descending Minneapolis Center
Sat 12:55:56 PM 44.7331 -93.9811 73° East 341 392 11,000  Level Minneapolis Center
Sat 12:56:58 PM 44.7672 -93.8269 73° East 344 396 11,000  Level Minneapolis Center
Sat 12:58:00 PM 44.7953 -93.6994 73° East 343 395 11,000  Level Minneapolis Center
Sat 12:59:01 PM 44.8233 -93.5717 73° East 341 392 11,000 -98 Level Minneapolis Center
Sat 01:00:03 PM 44.8506 -93.4464 73° East 333 383 10,800 -780 Descending Minneapolis Center
Sat 01:01:04 PM 44.8861 -93.3503 62° Northeast 281 323 9,400 -1,366 Descending Minneapolis Center
Sat 01:02:06 PM 44.9147 -93.2564 67° East 260 299 8,000 -823 Descending Minneapolis Center
Sat 01:03:08 PM 44.9231 -93.1511 84° East 267 307 7,700 -1,073 Descending Minneapolis Center
Sat 01:04:09 PM 44.9028 -93.0603 107° East 244 281 5,800 -1,805 Descending Minneapolis Center
Sat 01:05:11 PM 44.8619 -92.9581 119° Southeast 247 284 4,000 -878 Descending Minneapolis Center
Sat 01:06:12 PM 44.8292 -92.8800 121° Southeast 231 266 4,000  Level Minneapolis Center
Sat 01:07:14 PM 44.7822 -92.8383 148° Southeast 226 260 4,000  Level Minneapolis Center
Sat 01:08:16 PM 44.7597 -92.9075 245° Southwest 207 238 4,000  Level Minneapolis Center
Sat 01:09:17 PM 44.7872 -92.9794 298° West 212 244 4,000  Level Minneapolis Center

Login

Don't have an account? Register now (free) for customized features, flight alerts, and more!